Home   Weather   Rainy River   Past weeks

Flag for Canada Past Weather in Rainy River, Ontario, Canada — Yesterday and Last 2 Weeks

Now
30 °F

Overcast.


Feels Like: 30 °F
Forecast: 26 / 32 °F
Wind: No wind

Location: Baudette International Airport

Current Time: Dec 5, 2016 at 10:37:31 am

Latest Report: Dec 5, 2016 at 9:53 am


Visibility: 10 mi

Pressure: 29.79 "Hg

Humidity: 82%

Dew Point: 25 °F

Location of Rainy RiverLocation

Past Weather in Rainy River — Graph

°F

Rainy River Temperature Yesterday

Maximum temperature yesterday: 32 °F (at 12:58 pm)
Minimum temperature yesterday: 24 °F (at 12:04 am)
Average temperature yesterday: 29 °F

High & Low Weather Summary for the Past Weeks

 TemperatureHumidityPressure
High43 °F (Nov 28, 2:53 pm)100% (Nov 27, 12:53 am)30.43 "Hg (Nov 27, 12:53 am)
Low17 °F (Nov 21, 7:53 am)40% (Nov 21, 1:53 pm)29.03 "Hg (Nov 28, 1:53 pm)
Average31 °F87%29.93 "Hg
* Reported Nov 20 8:53 am — Dec 5 8:53 am, Rainy River, Weather by CustomWeather, © 2016

Note: Actual official high and low records may vary slightly from our data, if they occured in-between our weather recording intervals... More about our weather records

Advertising

Rainy River Weather History for the Previous 24 Hours

Scroll right to see more
 ConditionsComfort  
Time TempWeatherWind HumidityBarometerVisibility
8:53 am
Mon, Dec 5
29 °FOvercast.No wind85%29.77 "Hg10 mi
7:53 am29 °FOvercast.5 mph85%29.75 "Hg10 mi
6:53 am29 °FOvercast.7 mph85%29.74 "Hg10 mi
5:53 am29 °FOvercast.7 mph89%29.73 "Hg10 mi
4:53 am30 °FOvercast.9 mph85%29.72 "Hg10 mi
3:53 am30 °FOvercast.8 mph85%29.70 "Hg10 mi
2:53 am30 °FOvercast.9 mph85%29.70 "Hg10 mi
1:53 am30 °FOvercast.10 mph89%29.68 "Hg10 mi
12:53 am30 °FMostly cloudy.7 mph89%29.66 "Hg8 mi
11:53 pm
Sun, Dec 4
30 °FLight snow. Ice fog.7 mph89%29.65 "Hg4 mi
10:57 pm29 °FLight snow. Ice fog.5 mph96%29.60 "Hg3 mi
10:01 pm29 °FLight snow. Ice fog.5 mph93%29.59 "Hg4 mi
8:53 pm30 °FLow clouds.6 mph89%29.64 "Hg10 mi
8:00 pm31 °FLow clouds.10 mph92%29.59 "Hg8 mi
6:53 pm32 °FIce fog.5 mph96%29.63 "Hg5 mi
5:53 pm32 °FLow clouds.7 mph92%29.64 "Hg10 mi
5:02 pm32 °FLight snow. Ice fog.7 mph92%29.60 "Hg2 mi
4:53 pm32 °FLight snow. Ice fog.8 mph92%29.65 "Hg3 mi
3:53 pm32 °FLight snow. Overcast.10 mph92%29.66 "Hg8 mi
2:53 pm32 °FMostly cloudy.9 mph92%29.67 "Hg10 mi
2:01 pm32 °FIce fog.10 mph92%29.64 "Hg2 mi
1:04 pm32 °FLight snow. Ice fog.10 mph88%29.67 "Hg3 mi
12:58 pm32 °FLight snow. Ice fog.12 mph88%29.67 "Hg1 mi
11:53 am31 °FLight snow. Ice fog.14 mph89%29.75 "Hg6 mi
10:53 am30 °FOvercast.9 mph89%29.79 "Hg10 mi
10:04 am30 °FLight snow. Ice fog.12 mph89%29.76 "Hg2 mi
Weather by CustomWeather, © 2016

See weather overviewHow to use our weather pages